{"data":{"norad_id":39417,"epoch":"2026-09-20T04:09:04.792896Z","epoch_age_seconds":42708,"freshness":"FRESH","line1":"1 39417U 13066B   26263.17297214  .00003336  00000+0  25646-3 0  9992","line2":"2 39417  97.8156 226.0092 0038977 295.0993  64.6188 15.01846354694980","mean_motion":15.01846354,"eccentricity":0.0038977,"inclination_deg":97.8156,"raan_deg":226.0092,"arg_perigee_deg":295.0993,"mean_anomaly_deg":64.6188,"bstar":0.00025646,"rev_number":69498,"period_min":95.881978616835,"perigee_km":534.15561260205,"apogee_km":588.2505442494,"semimajor_km":6939.3400784257,"source":"CELESTRAK","updated_at":"2026-09-20T09:00:48.022177Z"}}